FW5813 Weather Reports


time (UTC)temp
C
wind
direction
speed
KPH
gust
KPH
rain 1hr
cm
rain 24hr
cm
rain mn
cm
humidity
%
barometer
mb
20260831234055 17 152 3.2 9.7 0.00 0.03 0.00 86 1017.7
20260831233108 17 181 3.2 9.7 0.00 0.03 0.00 85 1017.7
20260831232055 17 251 6.4 12.9 0.00 0.03 0.00 83 1017.8
20260831231555 17 228 3.2 12.9 0.00 0.03 0.00 83 1017.9
20260831231055 18 224 6.4 11.3 0.00 0.03 0.00 83 1017.8
20260831230554 18 225 3.2 11.3 0.00 0.03 0.00 82 1018.2
20260831230107 18 211 4.8 11.3 0.00 0.03 0.00 81 1018.3
20260831225554 18 226 6.4 11.3 0.00 0.03 0.00 80 1018.4
20260831225055 18 212 4.8 14.5 0.00 0.03 0.00 78 1018.2
20260831224555 18 234 9.7 14.5 0.00 0.03 0.00 76 1018.5
20260831224055 18 208 6.4 11.3 0.00 0.03 0.00 75 1018.2
20260831223055 18 104 4.8 20.9 0.00 0.03 0.00 73 1018.3
20260831222054 19 220 12.9 17.7 0.00 0.03 0.00 73 1018.6
20260831221555 19 183 3.2 11.3 0.00 0.03 0.00 75 1018.5
20260831220108 19 179 3.2 9.7 0.00 0.03 0.00 75 1018.4
20260831215055 19 238 1.6 12.9 0.00 0.03 0.03 76 1018.4
20260831214554 19 185 3.2 12.9 0.03 0.03 0.03 76 1018.5
20260831214055 19 205 6.4 12.9 0.03 0.03 0.03 76 1018.4
20260831213555 19 202 3.2 8.0 0.03 0.03 0.03 76 1018.3
20260831212555 20 239 3.2 11.3 0.03 0.03 0.03 74 1018.2
20260831212055 20 206 3.2 11.3 0.03 0.03 0.03 71 1018.2
20260831211555 20 240 9.7 9.7 0.03 0.03 0.03 65 1017.7
20260831211054 20 214 0.0 6.4 0.03 0.03 0.03 68 1017.8
20260831210555 20 273 1.6 6.4 0.03 0.03 0.03 70 1017.9
20260831205555 20 180 0.0 9.7 0.03 0.03 0.03 71 1017.7
20260831205055 20 145 1.6 9.7 0.03 0.03 0.03 71 1017.7
20260831204554 20 223 1.6 8.0 0.00 0.00 0.00 67 1017.6
20260831204055 21 280 0.0 4.8 0.00 0.00 0.00 66 1017.5
20260831203554 21 246 1.6 3.2 0.00 0.00 0.00 65 1017.6
20260831203054 21 91 0.0 4.8 0.00 0.00 0.00 61 1017.5
20260831202055 21 260 3.2 8.0 0.00 0.00 0.00 63 1017.1
20260831201555 22 27 0.0 8.0 0.00 0.00 0.00 60 1017.3
20260831201055 22 333 1.6 4.8 0.00 0.00 0.00 53 1017.0
20260831200555 22 107 0.0 4.8 0.00 0.00 0.00 50 1016.7
20260831200107 22 356 3.2 4.8 0.00 0.00 0.00 50 1016.3
20260831195554 22 301 1.6 4.8 0.00 0.00 0.00 50 1016.2
20260831195055 22 338 1.6 4.8 0.00 0.00 0.00 50 1016.1
20260831194554 22 269 1.6 4.8 0.00 0.00 0.00 50 1015.8
20260831194055 22 13 3.2 3.2 0.00 0.00 0.00 50 1015.8
20260831193055 22 269 0.0 3.2 0.00 0.00 0.00 49 1015.6
20260831192555 22 316 1.6 4.8 0.00 0.00 0.00 49 1015.8
20260831192055 22 0 0.0 4.8 0.00 0.00 0.00 49 1015.8
20260831191555 22 25 0.0 4.8 0.00 0.00 0.00 49 1015.5
20260831191055 22 321 0.0 4.8 0.00 0.00 0.00 49 1015.3
20260831190554 22 349 1.6 4.8 0.00 0.00 0.00 49 1015.2
20260831190106 22 284 0.0 3.2 0.00 0.00 0.00 49 1015.2
20260831185556 22 357 0.0 3.2 0.00 0.00 0.00 49 1015.4
20260831185054 22 20 1.6 3.2 0.00 0.00 0.00 50 1015.4
20260831184555 22 307 0.0 1.6 0.00 0.00 0.00 50 1015.3
20260831184056 22 6 0.0 1.6 0.00 0.00 0.00 49 1015.2
20260831183555 22 315 0.0 3.2 0.00 0.00 0.00 48 1015.0
20260831182554 23 333 0.0 3.2 0.00 0.00 0.00 46 1014.9
20260831182055 23 353 0.0 1.6 0.00 0.00 0.00 46 1014.9
20260831181555 23 339 0.0 1.6 0.00 0.00 0.00 45 1014.9
20260831181055 23 303 0.0 1.6 0.00 0.00 0.00 44 1014.8
20260831180555 23 353 0.0 3.2 0.00 0.00 0.00 44 1014.9
20260831180107 23 289 1.6 3.2 0.00 0.00 0.00 43 1014.9
20260831175554 24 283 0.0 4.8 0.00 0.00 0.00 43 1014.7
20260831175054 24 0 3.2 6.4 0.00 0.00 0.00 42 1014.5
20260831174555 25 357 3.2 4.8 0.00 0.00 0.00 42 1014.5
20260831174055 25 276 3.2 8.0 0.00 0.00 0.00 41 1014.5
20260831173556 25 264 1.6 8.0 0.00 0.00 0.00 41 1014.5
20260831173055 25 328 0.0 4.8 0.00 0.00 0.00 42 1014.5
20260831172555 25 290 1.6 6.4 0.00 0.00 0.00 41 1014.8
20260831172055 26 13 0.0 6.4 0.00 0.00 0.00 40 1014.5
20260831171055 26 241 0.0 9.7 0.00 0.00 0.00 39 1014.6
20260831170555 26 250 3.2 8.0 0.00 0.00 0.00 39 1014.6
20260831170108 26 186 0.0 8.0 0.00 0.00 0.00 38 1014.4
20260831165055 27 337 3.2 14.5 0.00 0.00 0.00 37 1014.5
20260831164055 27 232 3.2 11.3 0.00 0.00 0.00 38 1014.5
20260831163555 27 0 3.2 11.3 0.00 0.00 0.00 37 1014.8
20260831163056 28 284 3.2 11.3 0.00 0.00 0.00 37 1014.7
20260831162555 28 347 1.6 11.3 0.00 0.00 0.00 37 1014.6
20260831162055 28 216 4.8 9.7 0.00 0.00 0.00 38 1014.9
20260831161551 28 292 6.4 9.7 0.00 0.00 0.00 37 1014.7
20260831161052 28 8 3.2 14.5 0.00 0.00 0.00 37 1014.8
20260831160552 28 318 3.2 14.5 0.00 0.00 0.00 37 1014.7
20260831160104 28 232 4.8 12.9 0.00 0.00 0.00 37 1014.7
20260831155553 28 278 3.2 11.3 0.00 0.00 0.00 37 1014.9
20260831154552 28 254 4.8 12.9 0.00 0.00 0.00 36 1014.8
20260831154051 28 244 6.4 27.4 0.00 0.00 0.00 36 1014.7
20260831153551 28 265 6.4 27.4 0.00 0.00 0.00 36 1014.7
20260831153052 29 283 3.2 11.3 0.00 0.00 0.00 35 1014.8
20260831152552 28 257 3.2 16.1 0.00 0.00 0.00 36 1014.7
20260831152054 28 271 1.6 16.1 0.00 0.00 0.00 36 1014.8
20260831151053 29 355 6.4 11.3 0.00 0.00 0.00 35 1014.9
20260831150552 29 260 4.8 11.3 0.00 0.00 0.00 36 1014.8
20260831150105 29 298 3.2 9.7 0.00 0.00 0.00 37 1014.9
20260831145054 29 262 3.2 12.9 0.00 0.00 0.00 37 1014.9
20260831144552 29 245 3.2 14.5 0.00 0.00 0.00 37 1014.8
20260831144052 29 265 3.2 16.1 0.00 0.00 0.00 37 1014.9
20260831143552 29 245 3.2 17.7 0.00 0.00 0.00 37 1015.0
20260831142604 29 342 17.7 27.4 0.00 0.00 0.00 37 1014.9
20260831142054 29 310 11.3 17.7 0.00 0.00 0.00 36 1014.7
20260831141552 30 223 8.0 12.9 0.00 0.00 0.00 37 1014.9
20260831141053 30 252 1.6 11.3 0.00 0.00 0.00 39 1014.9
20260831140552 29 246 3.2 14.5 0.00 0.00 0.00 42 1014.8
20260831140105 29 221 8.0 20.9 0.00 0.00 0.00 41 1014.7
20260831135552 29 232 0.0 20.9 0.00 0.00 0.00 41 1014.9
20260831134552 29 288 6.4 14.5 0.00 0.00 0.00 40 1014.9
20260831134053 29 224 4.8 17.7 0.00 0.00 0.00 40 1015.1
20260831133551 29 317 3.2 17.7 0.00 0.00 0.00 41 1015.3
20260831133052 29 293 3.2 12.9 0.00 0.00 0.00 41 1014.9
20260831132552 29 234 4.8 16.1 0.00 0.00 0.00 42 1015.0
20260831131552 30 324 3.2 12.9 0.00 0.00 0.00 41 1015.2
20260831131052 30 353 8.0 11.3 0.00 0.00 0.00 42 1014.9
20260831130552 29 235 6.4 17.7 0.00 0.00 0.00 43 1015.1
20260831130104 28 247 6.4 17.7 0.00 0.00 0.00 48 1015.0
20260831125552 27 250 3.2 16.1 0.00 0.00 0.00 50 1015.2
20260831125106 26 305 0.0 17.7 0.00 0.00 0.00 55 1015.3
20260831124552 25 301 3.2 17.7 0.00 0.00 0.00 56 1015.3
20260831124052 25 240 3.2 16.1 0.00 0.00 0.00 55 1015.3
20260831123552 25 219 6.4 16.1 0.00 0.00 0.00 56 1015.6
20260831123051 25 247 3.2 12.9 0.00 0.00 0.00 55 1015.6
20260831122551 25 228 3.2 9.7 0.00 0.00 0.00 57 1015.6
20260831122053 25 276 0.0 9.7 0.00 0.00 0.00 59 1015.7
20260831121105 25 351 3.2 11.3 0.00 0.00 0.00 58 1015.8
20260831120105 25 245 3.2 11.3 0.00 0.00 0.00 60 1015.8
20260831115551 25 280 6.4 8.0 0.00 0.00 0.00 61 1015.8
20260831115053 24 236 0.0 9.7 0.00 0.00 0.00 62 1015.8
20260831114551 24 13 4.8 9.7 0.00 0.00 0.00 62 1015.7
20260831114051 24 10 3.2 9.7 0.00 0.00 0.00 62 1015.8
20260831113551 24 235 3.2 9.7 0.00 0.00 0.00 62 1015.8
20260831113051 24 227 4.8 11.3 0.00 0.00 0.00 63 1015.9
20260831112550 24 341 6.4 11.3 0.00 0.00 0.00 63 1016.0
20260831111050 24 239 6.4 12.9 0.00 0.00 0.00 62 1015.9
20260831110551 25 302 4.8 12.9 0.00 0.00 0.00 61 1016.1
20260831110104 25 236 6.4 12.9 0.00 0.00 0.00 60 1015.7
20260831105551 25 345 0.0 14.5 0.00 0.00 0.00 60 1016.1
20260831105053 25 236 4.8 14.5 0.00 0.00 0.00 60 1015.9
20260831104051 25 234 8.0 11.3 0.00 0.00 0.00 61 1016.1
20260831103551 25 276 3.2 9.7 0.00 0.00 0.00 61 1015.9
20260831103051 24 233 4.8 9.7 0.00 0.00 0.00 62 1015.8
20260831102550 24 243 8.0 11.3 0.00 0.00 0.00 61 1015.7
20260831101550 24 277 3.2 6.4 0.00 0.00 0.00 62 1015.9
20260831101050 24 358 3.2 14.5 0.00 0.00 0.00 63 1015.9
20260831100551 23 295 1.6 14.5 0.00 0.00 0.00 63 1015.8
20260831100104 23 235 4.8 12.9 0.00 0.00 0.00 63 1015.8
20260831095551 24 246 6.4 16.1 0.00 0.00 0.00 63 1015.8
20260831095052 23 217 0.0 16.1 0.00 0.00 0.00 64 1015.9
20260831094550 23 248 3.2 14.5 0.00 0.00 0.00 65 1015.8
20260831093550 23 246 9.7 19.3 0.00 0.00 0.00 63 1015.8
20260831093051 23 225 8.0 19.3 0.00 0.00 0.00 62 1015.5
20260831092052 23 224 3.2 14.5 0.00 0.00 0.00 62 1015.6
20260831091551 22 218 1.6 20.9 0.00 0.00 0.00 65 1015.6
20260831091050 22 235 14.5 20.9 0.00 0.00 0.00 65 1015.8
20260831090104 22 10 1.6 8.0 0.00 0.00 0.00 67 1015.4
20260831085052 22 206 3.2 12.9 0.00 0.00 0.00 67 1015.9
20260831084551 22 235 8.0 9.7 0.00 0.00 0.00 67 1015.7
20260831084052 21 214 0.0 9.7 0.00 0.00 0.00 70 1015.8
20260831083550 21 214 3.2 9.7 0.00 0.00 0.00 71 1015.8
20260831083042 21 216 9.7 16.1 0.00 0.00 0.00 72 1015.5
20260831082545 21 217 6.4 16.1 0.00 0.00 0.00 73 1015.9
20260831081539 20 233 1.6 20.9 0.00 0.00 0.00 74 1015.7
20260831081039 20 229 8.0 20.9 0.00 0.00 0.00 74 1015.6
20260831080539 20 234 4.8 6.4 0.00 0.00 0.00 75 1015.3
20260831080053 20 218 3.2 6.4 0.00 0.00 0.00 73 1015.2
20260831075539 20 19 0.0 8.0 0.00 0.00 0.00 74 1015.1
20260831075038 20 237 6.4 8.0 0.00 0.00 0.00 74 1015.3
20260831074039 20 239 0.0 6.4 0.00 0.00 0.00 73 1015.1
20260831073538 20 217 0.0 3.2 0.00 0.00 0.00 73 1014.7
20260831073039 20 199 1.6 3.2 0.00 0.00 0.00 73 1014.4
20260831072539 20 205 0.0 3.2 0.00 0.00 0.00 73 1014.4
20260831072039 20 4 0.0 6.4 0.00 0.00 0.00 73 1014.3
20260831071539 20 122 3.2 6.4 0.00 0.00 0.00 73 1014.3
20260831071039 20 162 1.6 8.0 0.00 0.00 0.00 72 1013.5
20260831070051 20 117 0.0 4.8 0.00 0.00 0.00 70 1014.1
20260831065538 20 104 4.8 4.8 0.00 0.00 0.00 69 1014.4
20260831065038 20 104 0.0 6.4 0.00 0.00 0.00 69 1014.5
20260831064539 20 5 3.2 6.4 0.00 0.00 0.00 69 1014.8
20260831064038 20 269 0.0 4.8 0.00 0.00 0.00 69 1015.0
20260831063538 20 15 0.0 4.8 0.00 0.00 0.00 70 1014.9
20260831063038 20 310 0.0 3.2 0.00 0.00 0.00 71 1014.9
20260831062537 20 269 0.0 4.8 0.00 0.00 0.00 72 1014.8
20260831062039 19 230 0.0 4.8 0.00 0.00 0.00 73 1014.5
20260831061538 19 29 0.0 3.2 0.00 0.00 0.00 73 1015.0
20260831061040 19 3 0.0 3.2 0.00 0.00 0.00 73 1014.8
20260831060539 19 5 0.0 3.2 0.00 0.00 0.00 74 1014.8
20260831055538 18 2 0.0 3.2 0.00 0.00 0.00 77 1014.5
20260831055039 18 351 0.0 1.6 0.00 0.00 0.00 79 1014.3
20260831054539 18 29 0.0 1.6 0.00 0.00 0.00 78 1014.3
20260831054039 18 25 1.6 3.2 0.00 0.00 0.00 79 1014.2
20260831053551 18 38 0.0 3.2 0.00 0.00 0.00 79 1014.2
20260831053040 17 8 0.0 3.2 0.00 0.00 0.00 79 1014.0
20260831052538 17 13 1.6 3.2 0.00 0.00 0.00 80 1014.2
20260831052039 17 44 0.0 3.2 0.00 0.00 0.00 79 1014.3
20260831051551 17 224 0.0 3.2 0.00 0.00 0.00 79 1014.2
20260831051038 17 63 0.0 4.8 0.00 0.00 0.00 80 1013.9
20260831050539 17 135 0.0 4.8 0.00 0.00 0.00 80 1014.1
20260831050051 16 105 0.0 4.8 0.00 0.00 0.00 81 1014.2
20260831045538 16 142 0.0 3.2 0.00 0.00 0.00 82 1014.1
20260831045038 16 154 0.0 1.6 0.00 0.00 0.00 82 1014.2
20260831044538 16 32 0.0 1.6 0.00 0.00 0.00 84 1014.1
20260831044039 16 147 0.0 1.6 0.00 0.00 0.00 84 1014.1
20260831043537 16 50 0.0 1.6 0.00 0.00 0.00 85 1014.1
20260831043038 16 23 0.0 3.2 0.00 0.00 0.00 85 1014.2
20260831042538 15 89 0.0 3.2 0.00 0.00 0.00 85 1014.3
20260831041537 15 117 0.0 3.2 0.00 0.00 0.00 85 1014.3
20260831040537 15 135 0.0 3.2 0.00 0.00 0.00 84 1014.2
20260831040038 16 44 0.0 3.2 0.00 0.00 0.00 84 1014.3
20260831035538 15 39 0.0 3.2 0.00 0.00 0.00 84 1014.3
20260831035036 15 135 0.0 3.2 0.00 0.00 0.00 84 1014.4
20260831034537 15 37 0.0 3.2 0.00 0.00 0.00 84 1014.3
20260831034036 15 11 1.6 3.2 0.00 0.00 0.00 84 1014.2
20260831033536 15 99 0.0 3.2 0.00 0.00 0.00 84 1014.3
20260831033037 15 38 0.0 3.2 0.00 0.00 0.00 84 1014.3
20260831032036 15 35 0.0 1.6 0.00 0.00 0.00 85 1014.3
20260831031536 15 125 0.0 1.6 0.00 0.00 0.00 85 1014.5
20260831031037 15 37 0.0 3.2 0.00 0.00 0.00 84 1014.2
20260831030537 15 55 0.0 3.2 0.00 0.00 0.00 84 1014.1
20260831030049 15 35 0.0 3.2 0.00 0.00 0.00 84 1014.1
20260831025536 15 62 0.0 3.2 0.00 0.00 0.00 84 1014.1
20260831025036 15 37 0.0 3.2 0.00 0.00 0.00 84 1014.1
20260831024536 15 62 0.0 1.6 0.00 0.00 0.00 84 1014.0
20260831024036 15 154 0.0 3.2 0.00 0.00 0.00 84 1014.0
20260831023536 15 124 0.0 3.2 0.00 0.00 0.00 83 1014.2
20260831023036 15 142 0.0 4.8 0.00 0.00 0.00 83 1014.0
20260831022536 16 130 3.2 4.8 0.00 0.00 0.00 83 1014.1
20260831022036 16 142 0.0 3.2 0.00 0.00 0.00 82 1014.1
20260831021535 16 150 0.0 1.6 0.00 0.00 0.00 81 1014.2
20260831021035 16 44 0.0 1.6 0.00 0.00 0.00 80 1014.2
20260831020535 16 44 0.0 3.2 0.00 0.00 0.00 79 1014.4
20260831020034 16 22 0.0 3.2 0.00 0.00 0.00 79 1014.3
20260831015535 16 357 0.0 3.2 0.00 0.00 0.00 79 1014.2
20260831015035 16 27 0.0 4.8 0.00 0.00 0.00 79 1014.1
20260831014536 16 345 0.0 4.8 0.00 0.00 0.00 79 1014.1
20260831014035 16 63 1.6 4.8 0.00 0.00 0.00 79 1014.2
20260831013034 16 9 3.2 3.2 0.00 0.00 0.00 79 1014.2
20260831012535 16 21 3.2 3.2 0.00 0.00 0.00 80 1014.2
20260831012035 16 42 1.6 3.2 0.00 0.00 0.00 80 1014.1
20260831011535 16 4 3.2 3.2 0.00 0.00 0.00 80 1014.3
20260831011035 16 20 1.6 3.2 0.00 0.00 0.00 81 1014.4
20260831010535 16 135 0.0 3.2 0.00 0.00 0.00 80 1014.4
20260831010035 16 40 0.0 3.2 0.00 0.00 0.00 80 1014.2
20260831005534 16 17 1.6 3.2 0.00 0.00 0.00 80 1014.2
20260831005036 16 58 0.0 3.2 0.00 0.00 0.00 80 1014.4
20260831004535 16 38 0.0 1.6 0.00 0.00 0.00 80 1014.5
20260831004034 16 62 0.0 1.6 0.00 0.00 0.00 79 1014.3
20260831003035 17 34 0.0 3.2 0.00 0.00 0.00 79 1014.7
20260831002535 17 21 1.6 3.2 0.00 0.00 0.00 79 1014.5
20260831002034 17 31 1.6 3.2 0.00 0.00 0.00 79 1014.7
20260831001534 17 38 0.0 3.2 0.00 0.00 0.00 80 1014.8
20260831001035 17 41 0.0 3.2 0.00 0.00 0.00 80 1014.8
20260831000535 17 353 0.0 3.2 0.00 0.00 0.00 79 1014.7
20260831000035 17 50 0.0 1.6 0.00 0.00 0.00 79 1014.6
20260830235534 17 63 0.0 1.6 0.00 0.00 0.00 79 1014.8
20260830235034 17 44 0.0 1.6 0.00 0.00 0.00 79 1014.8
20260830234522 17 25 0.0 1.6 0.00 0.00 0.00 78 1014.8